sat.trackr.live / text

‹ back to catalog

STARLINK-34262

NORAD 64688 · 2025-139AA

PAYLOAD ACTIVE UNKNOWN

§ Identity

Operator
Country
US
Launch date
2025-06-28
Launch site
AFETR
Launch vehicle
Mass (kg)
RCS (m²)

Purposes: comms

External: N2YO · Heavens-Above · Gunter

§ Orbital elements

Epoch: 2026-05-25T03:50:10.220928Z

Period
93.85 min
Inclination
53.1594°
Eccentricity
0.0000889
Mean motion
15.34401767 rev/d
Perigee alt
462.1 km
Apogee alt
463.3 km
Semi-major
6,840.8 km
B*
7.5671e-4
RAAN
131.0129°
Arg perigee
65.9664°
Mean anomaly
294.1432°
Rev number
5,206

§ Raw data

STARLINK-342621 64688U 25139AA  26145.15984052  .00025278  00000+0  75671-3 0  99962 64688  53.1594 131.0129 0000889  65.9664 294.1432 15.34401767 52065

JSON: /api/v1/satellites/64688 · /tle

For live sub-satellite position, see the globe view (requires WebGL).

§ Visibility from observer

Set your observer location to see the next 7 days of passes ≥ 10°. The values pass through the URL so the page stays shareable.

No JS? Fill the form by hand. The geolocation button needs JavaScript.